Regional Weather Roundup
Issued by NWS

Home | Current Version | Previous Version | Graphics & Text | Print | Product List | Glossary Off
Versions: 1 2 3 4 5 6 7 8 9 10 11 12 13 14 15 16 17 18 19 20 21 22 23 24 25 26 27 28 29 30 31 32 33 34 35 36 37 38 39 40 41 42 43 44 45 46 47 48 49 50

000
ASUS45 KPSR 282210
RWRAZ

ARIZONA HOURLY REGIONAL WEATHER ROUNDUP
NATIONAL WEATHER SERVICE PHOENIX AZ
300 PM MST TUE MAR 28 2017

NOTE: FAIR INDICATES FEW OR NO CLOUDS BELOW 12,000 FEET WITH NO
SIGNIFICANT WEATHER AND/OR OBSTRUCTIONS TO VISIBILITY.

AZZ001>003-036-282300-
NORTHWEST ARIZONA

CITY           SKY/WX    TMP DP  RH WIND       PRES   REMARKS
BULLHEAD CITY  SUNNY     75  21  13 N24G30    29.92F
KINGMAN        SUNNY     64   5   9 NW16G26   29.98F
$$

AZZ004>008-015-016-018-282300-
NORTH CENTRAL ARIZONA

CITY           SKY/WX    TMP DP  RH WIND       PRES   REMARKS
GRAND CANYON   MOSUNNY   51  26  37 NW8G16    29.97F
WILLIAMS       CLOUDY    52  25  35 N14G20    29.97S
PRESCOTT       MOSUNNY   60  25  26 N16G26    29.93S
FLAGSTAFF      CLOUDY    47  25  42 NW12G18   29.95S
PAYSON         CLOUDY    57  32  38 VRB7G14   29.94F
PAGE           PTSUNNY   64  25  22 N9        29.88F
$$

AZZ009>014-017-282300-
NORTHEAST ARIZONA

CITY           SKY/WX    TMP DP  RH WIND       PRES   REMARKS
WINSLOW        CLOUDY    58  30  34 NW21      29.89F
SAINT JOHNS    PTSUNNY   48  34  58 NW30G37   29.86S
WINDOW ROCK    CLOUDY    46  36  68 NW5       29.86S
SHOW LOW       LGT RAIN  41  32  70 NW3       29.92F
$$

AZZ023-282300-
GREATER PHOENIX AREA

CITY           SKY/WX    TMP DP  RH WIND       PRES   REMARKS
PHOENIX        MOSUNNY   76  32  20 W12G24    29.81F
BUCKEYE        SUNNY     77  32  19 W6        29.84F
GLENDALE       MOSUNNY   77  34  20 SW12      29.84F
LUKE AFB       SUNNY     77  33  20 CALM      29.80F
DEER VALLEY    SUNNY     75  33  21 W14G21    29.81F
SCOTTSDALE     SUNNY     76  32  20 W12       29.83F
MESA-FALCON    MOSUNNY  N/A N/A N/A SW17G23   29.80F
MESA-GATEWAY   MOSUNNY   73  34  23 W9G18     29.84F
CHANDLER       SUNNY     75  32  20 SW16      29.83F
$$

AZZ027-028-282300-
SOUTHWEST MARICOPA COUNTY AND PINAL COUNTY

CITY           SKY/WX    TMP DP  RH WIND       PRES   REMARKS
CASA GRANDE    NOT AVBL
GILA BEND      MOSUNNY   77  29  17 W17       29.84F
$$

AZZ503-504-507>509-282300-
SOUTHEAST ARIZONA

CITY           SKY/WX    TMP DP  RH WIND       PRES   REMARKS
TUCSON         SUNNY     69  31  24 NW17      29.90F
DAVIS-MONTHAN  SUNNY     68  31  25 NW18      29.88F
RYAN FIELD     MOSUNNY   70  32  24 NW10G17   29.91F
NOGALES        SUNNY     67  27  22 NW12G20   29.91F
SIERRA VISTA   MOSUNNY   61  26  25 NW20G31   29.93S
DOUGLAS        PTSUNNY   63  26  24 NW18G30   29.88S
SAFFORD        PTSUNNY   67  31  26 NW20G37   29.82F
$$

AZZ020-021-025-026-031-282300-
SOUTHWEST ARIZONA

CITY           SKY/WX    TMP DP  RH WIND       PRES   REMARKS
YUMA           SUNNY     81  21  11 NW16G23   29.90F
$$

CAZ031-033-041-043-047-048-061-282300-
SOUTHERN CALIFORNIA

CITY           SKY/WX    TMP DP  RH WIND       PRES   REMARKS
DOWNTOWN L.A.  SUNNY     76  38  25 VRB3      29.96F
L.A. AIRPORT   MOSUNNY   73  43  33 SW14      29.97F
SAN DIEGO      MOSUNNY   70  44  39 W10       30.00F
BURBANK        SUNNY     75  34  22 S8        29.96F
ONTARIO        MOSUNNY   77  25  14 W12       29.97F
RIVERSIDE      SUNNY     78  23  13 N14G24    29.96F
PALM SPRINGS   SUNNY     83  14   7 NE12G21   29.94F
EL CENTRO NAS  MOSUNNY   81  12   7 N12G21    29.93F
IMPERIAL       SUNNY     80  25  13 NW13G20   29.92F
BLYTHE         SUNNY     81  21  11 NW16G22   29.90F
NEEDLES        SUNNY     78  21  12 NE25G33   29.93F
$$

NVZ020-UTZ003-282300-
SOUTHERN NEVADA-UTAH

CITY           SKY/WX    TMP DP  RH WIND       PRES   REMARKS
LAS VEGAS      SUNNY     72  13  10 N17G24    30.00F
SALT LAKE CITY MOSUNNY   53  29  39 NW17      30.13S
$$

NMZ009-TXZ055-282300-
NEW MEXICO-WEST TEXAS

CITY           SKY/WX    TMP DP  RH WIND       PRES   REMARKS
ALBUQUERQUE    CLOUDY    48  38  68 N13       29.81R
EL PASO        PTSUNNY   61  25  25 W20G30    29.81F
$$


........................KEY........................
SKY/WX - SKY CONDITION/WEATHER
TMP    - TEMPERATURE IN FAHRENHEIT
DP     - DEW POINT IN FAHRENHEIT
RH     - RELATIVE HUMIDITY IN PERCENT
WIND   - DIRECTION AND SPEED IN MILES PER HOUR (MPH)
VRB    - VARIABLE WIND DIRECTION
PRES   - MEAN SEA LEVEL PRESSURE IN INCHES OF MERCURY
         F - FALLING PRESSURE   R - RISING PRESSURE
         S - STEADY PRESSURE
VSB    - VISIBILITY IN MILES
HX     - HEAT INDEX IN FAHRENHEIT
WCI    - WIND CHILL INDEX IN FAHRENHEIT
TC     - TEMPERATURE IN CELSIUS WHICH IS ALSO KNOWN AS
         TEMPERATURE IN CENTIGRADE
AFB    - AIR FORCE BASE
         LUKE AFB IS LUKE AIR FORCE BASE
         DAVIS-MONTHAN IS DAVIS-MONTHAN AIR FORCE BASE
NAS    - NAVAL AIR STATION
         EL CENTRO NAS IS EL CENTRO NAVAL AIR STATION
N/A    - NOT AVAILABLE




USA.gov is the U.S. government's official web portal to all federal, state and local government web resources and services.